START_TIME,STEP,MOV.,AL01,t_acc.,AL02,t_acc.,E37,t_acc.,H21,t_acc.
1979-07-02 03:00:35.220 ,1,0,1.,24.0,0.,24.0,0.,24.0,0.,24.0
1979-07-02 03:00:59.220 ,2,1,0.,24.0,0.,24.0,0.,24.0,0.,24.0
1979-07-02 03:01:23.220 ,2,0,0.,24.0,0.,24.0,0.,24.0,0.,24.0
1979-07-02 03:01:47.220 ,3,1,0.,24.0,0.,24.0,0.,24.0,0.,24.0
1979-07-02 03:02:11.220 ,3,0,0.,24.0,0.,24.0,0.,24.0,0.,24.0
1979-07-02 03:02:35.220 ,4,1,0.,24.0,0.,24.0,1.,24.0,0.,24.0
1979-07-02 03:02:59.220 ,4,0,0.,24.0,0.,24.0,1.,24.0,0.,24.0
1979-07-02 03:03:23.220 ,5,1,3.,24.0,0.,24.0,0.,24.0,0.,24.0
1979-07-02 03:03:47.220 ,5,0,0.,24.0,0.,24.0,0.,24.0,0.,24.0
1979-07-02 03:04:11.220 ,6,1,0.,24.0,0.,24.0,0.,24.0,0.,24.0
1979-07-02 03:04:35.220 ,6,0,0.,24.0,0.,24.0,0.,24.0,0.,24.0
1979-07-02 03:04:59.220 ,7,1,8.,24.0,0.,24.0,0.,24.0,0.,24.0
1979-07-02 03:05:23.220 ,7,0,28.,24.0,0.,24.0,0.,24.0,0.,24.0
1979-07-02 03:05:47.220 ,7,1,27.,24.0,0.,24.0,0.,24.0,0.,24.0
1979-07-02 03:06:11.220 ,7,0,13.,24.0,0.,24.0,0.,24.0,0.,24.0
1979-07-02 03:06:35.220 ,6,1,28.,24.0,0.,24.0,1.,24.0,0.,24.0
1979-07-02 03:06:59.220 ,6,0,1.,24.0,0.,24.0,0.,24.0,0.,24.0
1979-07-02 03:07:23.220 ,5,1,0.,24.0,0.,24.0,0.,24.0,0.,24.0
1979-07-02 03:07:47.220 ,5,0,0.,24.0,0.,24.0,0.,24.0,0.,24.0
1979-07-02 03:08:11.220 ,4,1,0.,24.0,0.,24.0,0.,24.0,0.,24.0
1979-07-02 03:08:35.220 ,4,0,0.,24.0,0.,24.0,0.,24.0,0.,24.0
1979-07-02 03:08:59.220 ,3,1,0.,24.0,0.,24.0,0.,24.0,0.,24.0
1979-07-02 03:09:23.220 ,3,0,1.,24.0,0.,24.0,0.,24.0,0.,24.0
1979-07-02 03:09:47.220 ,2,1,1.,24.0,0.,24.0,0.,24.0,0.,24.0
1979-07-02 03:10:11.220 ,2,0,1.,24.0,0.,24.0,0.,24.0,0.,24.0
1979-07-02 03:10:35.220 ,1,1,0.,24.0,0.,24.0,0.,24.0,0.,24.0
1979-07-02 03:10:59.220 ,1,0,0.,24.0,0.,24.0,0.,24.0,0.,24.0
1979-07-02 03:11:23.220 ,0,1,0.,24.0,0.,24.0,0.,24.0,0.,24.0
1979-07-02 03:11:47.220 ,0,0,0.,24.0,0.,24.0,1.,24.0,0.,24.0
1979-07-02 03:12:11.220 ,0,1,1.,24.0,0.,24.0,0.,24.0,0.,24.0
1979-07-02 03:12:35.220 ,0,0,0.,24.0,0.,24.0,0.,24.0,0.,24.0
1979-07-02 03:12:59.220 ,1,1,0.,24.0,0.,24.0,0.,24.0,0.,24.0
1979-07-02 03:13:23.220 ,1,0,0.,24.0,0.,24.0,0.,24.0,0.,24.0
1979-07-02 03:13:47.220 ,2,1,1.,24.0,1.,24.0,0.,24.0,0.,24.0
1979-07-02 03:14:11.220 ,2,0,0.,24.0,0.,24.0,0.,24.0,0.,24.0
1979-07-02 03:14:35.220 ,3,1,0.,24.0,0.,24.0,1.,24.0,0.,24.0
1979-07-02 03:14:59.220 ,3,0,0.,24.0,0.,24.0,0.,24.0,0.,24.0
1979-07-02 03:15:23.220 ,4,1,0.,24.0,0.,24.0,0.,24.0,0.,24.0
1979-07-02 03:15:47.220 ,4,0,0.,24.0,0.,24.0,0.,24.0,0.,24.0
1979-07-02 03:16:11.220 ,5,1,0.,24.0,0.,24.0,0.,24.0,0.,24.0
1979-07-02 03:16:35.220 ,5,0,0.,24.0,0.,24.0,0.,24.0,0.,24.0
1979-07-02 03:16:59.220 ,6,1,0.,24.0,0.,24.0,1.,24.0,0.,24.0
1979-07-02 03:17:23.220 ,6,0,1.,24.0,0.,24.0,0.,24.0,0.,24.0
1979-07-02 03:17:47.220 ,7,1,14.,24.0,0.,24.0,0.,24.0,0.,24.0
1979-07-02 03:18:11.220 ,7,0,36.,24.0,0.,24.0,0.,24.0,0.,24.0
1979-07-02 03:18:35.220 ,7,1,30.,24.0,0.,24.0,0.,24.0,0.,24.0
1979-07-02 03:18:59.220 ,7,0,24.,24.0,0.,24.0,0.,24.0,0.,24.0
1979-07-02 03:19:23.220 ,6,1,13.,24.0,0.,24.0,1.,24.0,0.,24.0
1979-07-02 03:19:47.220 ,6,0,0.,24.0,0.,24.0,0.,24.0,0.,24.0
1979-07-02 03:20:11.220 ,5,1,1.,24.0,0.,24.0,0.,24.0,0.,24.0
1979-07-02 03:20:35.220 ,5,0,0.,24.0,0.,24.0,0.,24.0,0.,24.0
1979-07-02 03:20:59.220 ,4,1,0.,24.0,0.,24.0,0.,24.0,0.,24.0
1979-07-02 03:21:23.220 ,4,0,0.,24.0,0.,24.0,0.,24.0,0.,24.0
1979-07-02 03:21:47.220 ,3,1,1.,24.0,0.,24.0,0.,24.0,0.,24.0
1979-07-02 03:22:11.220 ,3,0,0.,24.0,0.,24.0,1.,24.0,0.,24.0
1979-07-02 03:22:35.220 ,2,1,0.,24.0,0.,24.0,0.,24.0,0.,24.0
1979-07-02 03:22:59.220 ,2,0,0.,24.0,0.,24.0,1.,24.0,0.,24.0
1979-07-02 03:23:23.220 ,1,1,0.,24.0,0.,24.0,0.,24.0,0.,24.0
1979-07-02 03:23:47.220 ,1,0,1.,24.0,0.,24.0,0.,24.0,0.,24.0
1979-07-02 03:24:11.220 ,0,1,0.,24.0,0.,24.0,0.,24.0,0.,24.0
1979-07-02 03:24:35.220 ,0,0,0.,24.0,0.,24.0,0.,24.0,0.,24.0
1979-07-02 03:24:59.220 ,0,1,0.,24.0,0.,24.0,0.,24.0,0.,24.0
1979-07-02 03:25:23.220 ,0,0,0.,24.0,0.,24.0,0.,24.0,0.,24.0
1979-07-02 03:25:47.220 ,1,1,0.,24.0,0.,24.0,1.,24.0,0.,24.0
1979-07-02 03:26:11.220 ,1,0,0.,24.0,0.,24.0,1.,24.0,0.,24.0
1979-07-02 03:26:35.220 ,2,1,1.,24.0,0.,24.0,1.,24.0,0.,24.0
1979-07-02 03:26:59.220 ,2,0,1.,24.0,0.,24.0,0.,24.0,0.,24.0
1979-07-02 03:27:23.220 ,3,1,1.,24.0,0.,24.0,1.,24.0,0.,24.0
1979-07-02 03:27:47.220 ,3,0,0.,24.0,0.,24.0,0.,24.0,0.,24.0
1979-07-02 03:28:11.220 ,4,1,0.,24.0,0.,24.0,0.,24.0,0.,24.0
1979-07-02 03:28:35.220 ,4,0,0.,24.0,0.,24.0,1.,24.0,0.,24.0
1979-07-02 03:28:59.220 ,5,1,1.,24.0,0.,24.0,0.,24.0,0.,24.0
1979-07-02 03:29:23.220 ,5,0,0.,24.0,0.,24.0,0.,24.0,0.,24.0
1979-07-02 03:29:47.220 ,6,1,1.,24.0,0.,24.0,0.,24.0,0.,24.0
1979-07-02 03:30:11.220 ,6,0,1.,24.0,0.,24.0,0.,24.0,0.,24.0
1979-07-02 03:30:35.220 ,7,0,3.,24.0,0.,24.0,1.,24.0,0.,24.0
1979-07-02 03:30:59.220 ,7,0,26.,24.0,0.,24.0,0.,24.0,0.,24.0
1979-07-02 03:31:23.220 ,5,1,13.,24.0,0.,24.0,1.,24.0,0.,24.0
1979-07-02 03:31:47.220 ,1,1,0.,24.0,0.,24.0,0.,24.0,0.,24.0
1979-07-02 03:32:11.220 ,2,1,1.,24.0,0.,24.0,0.,24.0,0.,24.0
1979-07-02 03:32:35.220 ,6,1,1.,24.0,0.,24.0,0.,24.0,0.,24.0
1979-07-02 03:32:59.220 ,5,1,12.,24.0,0.,24.0,0.,24.0,0.,24.0
1979-07-02 03:33:23.220 ,1,1,0.,24.0,0.,24.0,0.,24.0,0.,24.0
1979-07-02 03:33:47.220 ,2,1,0.,24.0,0.,24.0,0.,24.0,0.,24.0
1979-07-02 03:34:11.220 ,6,1,0.,24.0,0.,24.0,1.,24.0,0.,24.0
1979-07-02 03:34:35.220 ,5,1,15.,24.0,0.,24.0,0.,24.0,0.,24.0
1979-07-02 03:34:59.220 ,1,1,0.,24.0,0.,24.0,0.,24.0,0.,24.0
1979-07-02 03:35:23.220 ,2,1,0.,24.0,0.,24.0,0.,24.0,0.,24.0
1979-07-02 03:35:47.220 ,6,1,0.,24.0,0.,24.0,0.,24.0,0.,24.0
1979-07-02 03:36:11.220 ,5,1,20.,24.0,0.,24.0,0.,24.0,0.,24.0
1979-07-02 03:36:35.220 ,1,1,0.,24.0,0.,24.0,0.,24.0,0.,24.0
1979-07-02 03:36:59.220 ,2,1,1.,24.0,0.,24.0,2.,24.0,0.,24.0
1979-07-02 03:37:23.220 ,6,1,0.,24.0,0.,24.0,0.,24.0,0.,24.0
1979-07-02 03:37:47.220 ,5,1,20.,24.0,0.,24.0,1.,24.0,0.,24.0
1979-07-02 03:38:11.220 ,1,1,1.,24.0,0.,24.0,1.,24.0,0.,24.0
1979-07-02 03:38:35.220 ,2,1,0.,24.0,0.,24.0,1.,24.0,0.,24.0
1979-07-02 03:38:59.220 ,6,1,0.,24.0,0.,24.0,2.,24.0,0.,24.0
1979-07-02 03:39:23.220 ,5,1,26.,24.0,0.,24.0,0.,24.0,0.,24.0
1979-07-02 03:39:47.220 ,1,1,0.,24.0,1.,24.0,0.,24.0,0.,24.0
1979-07-02 03:40:11.220 ,2,1,0.,24.0,0.,24.0,0.,24.0,0.,24.0
1979-07-02 03:40:35.220 ,6,1,0.,24.0,0.,24.0,1.,24.0,0.,24.0
1979-07-02 03:40:59.220 ,5,1,21.,24.0,0.,24.0,0.,24.0,0.,24.0
1979-07-02 03:41:23.220 ,1,1,0.,24.0,0.,24.0,0.,24.0,0.,24.0
1979-07-02 03:41:47.220 ,0,0,0.,24.0,0.,24.0,0.,24.0,0.,24.0
1979-07-02 03:42:11.220 ,0,0,0.,24.0,0.,24.0,0.,24.0,0.,24.0
1979-07-02 03:42:35.220 ,5,1,11.,24.0,0.,24.0,0.,24.0,0.,24.0
1979-07-02 03:42:59.220 ,5,0,0.,24.0,0.,24.0,0.,24.0,0.,24.0
1979-07-02 03:43:23.220 ,4,1,0.,24.0,0.,24.0,0.,24.0,0.,24.0
1979-07-02 03:43:47.220 ,4,0,0.,24.0,1.,24.0,0.,24.0,0.,24.0
1979-07-02 03:44:11.220 ,3,1,0.,24.0,0.,24.0,0.,24.0,0.,24.0
1979-07-02 03:44:35.220 ,3,0,0.,24.0,0.,24.0,0.,24.0,0.,24.0
1979-07-02 03:44:59.220 ,2,1,0.,24.0,0.,24.0,1.,24.0,0.,24.0
1979-07-02 03:45:23.220 ,2,0,0.,24.0,0.,24.0,0.,24.0,0.,24.0
1979-07-02 03:45:47.220 ,1,1,0.,24.0,0.,24.0,1.,24.0,0.,24.0
1979-07-02 03:46:11.220 ,1,0,1.,24.0,0.,24.0,0.,24.0,0.,24.0
1979-07-02 03:46:35.220 ,0,1,1.,24.0,0.,24.0,0.,24.0,0.,24.0
1979-07-02 03:46:59.220 ,0,0,0.,24.0,0.,24.0,0.,24.0,0.,24.0
1979-07-02 03:47:23.220 ,0,1,0.,24.0,0.,24.0,0.,24.0,0.,24.0
1979-07-02 03:47:47.220 ,0,0,1.,24.0,0.,24.0,0.,24.0,0.,24.0
1979-07-02 03:48:11.220 ,1,1,0.,24.0,0.,24.0,0.,24.0,0.,24.0
1979-07-02 03:48:35.220 ,1,0,0.,24.0,0.,24.0,0.,24.0,0.,24.0
1979-07-02 03:48:59.220 ,2,1,1.,24.0,0.,24.0,1.,24.0,0.,24.0
1979-07-02 03:49:23.220 ,2,0,0.,24.0,0.,24.0,0.,24.0,0.,24.0
1979-07-02 03:49:47.220 ,3,1,0.,24.0,0.,24.0,0.,24.0,0.,24.0
1979-07-02 03:50:11.220 ,3,0,0.,24.0,0.,24.0,0.,24.0,0.,24.0
1979-07-02 03:50:35.220 ,4,1,0.,24.0,0.,24.0,1.,24.0,0.,24.0
1979-07-02 03:50:59.220 ,4,0,0.,24.0,0.,24.0,0.,24.0,0.,24.0
1979-07-02 03:51:23.220 ,5,1,0.,24.0,1.,24.0,0.,24.0,0.,24.0
1979-07-02 03:51:47.220 ,5,0,0.,24.0,0.,24.0,0.,24.0,0.,24.0
1979-07-02 03:52:11.220 ,6,1,0.,24.0,0.,24.0,0.,24.0,0.,24.0
1979-07-02 03:52:35.220 ,6,0,0.,24.0,0.,24.0,1.,24.0,0.,24.0
1979-07-02 03:52:59.220 ,7,1,5.,24.0,0.,24.0,0.,24.0,0.,24.0
1979-07-02 03:53:23.220 ,7,0,32.,24.0,0.,24.0,0.,24.0,0.,24.0
1979-07-02 03:53:47.220 ,7,1,21.,24.0,0.,24.0,0.,24.0,0.,24.0
1979-07-02 03:54:11.220 ,7,0,39.,24.0,0.,24.0,1.,24.0,0.,24.0
1979-07-02 03:54:35.220 ,6,1,27.,24.0,0.,24.0,0.,24.0,0.,24.0
1979-07-02 03:54:59.220 ,6,0,0.,24.0,0.,24.0,2.,24.0,0.,24.0
1979-07-02 03:55:23.220 ,5,1,0.,24.0,0.,24.0,0.,24.0,0.,24.0
1979-07-02 03:55:47.220 ,5,0,0.,24.0,0.,24.0,1.,24.0,0.,24.0
1979-07-02 03:56:11.220 ,4,1,1.,24.0,0.,24.0,0.,24.0,0.,24.0
1979-07-02 03:56:35.220 ,4,0,0.,24.0,0.,24.0,0.,24.0,0.,24.0
1979-07-02 03:56:59.220 ,3,1,0.,24.0,0.,24.0,0.,24.0,0.,24.0
1979-07-02 03:57:23.220 ,3,0,0.,24.0,0.,24.0,1.,24.0,0.,24.0
1979-07-02 03:57:47.220 ,2,1,1.,24.0,0.,24.0,0.,24.0,0.,24.0
1979-07-02 03:58:11.220 ,2,0,1.,24.0,0.,24.0,0.,24.0,0.,24.0
1979-07-02 03:58:35.220 ,1,1,1.,24.0,0.,24.0,0.,24.0,0.,24.0
1979-07-02 03:58:59.220 ,1,0,1.,24.0,0.,24.0,1.,24.0,0.,24.0
1979-07-02 03:59:23.220 ,0,1,0.,24.0,0.,24.0,0.,24.0,0.,24.0
1979-07-02 03:59:47.220 ,0,0,0.,24.0,0.,24.0,0.,24.0,0.,24.0
1979-07-02 04:00:11.220 ,0,1,0.,24.0,0.,24.0,0.,24.0,0.,24.0
1979-07-02 04:00:35.220 ,0,0,0.,24.0,0.,24.0,0.,24.0,0.,24.0
1979-07-02 04:00:59.220 ,1,1,0.,24.0,0.,24.0,0.,24.0,0.,24.0
1979-07-02 04:01:23.220 ,1,0,0.,24.0,0.,24.0,0.,24.0,0.,24.0
1979-07-02 04:01:47.220 ,2,1,0.,24.0,0.,24.0,0.,24.0,0.,24.0
1979-07-02 04:02:11.210 ,2,0,0.,24.0,0.,24.0,0.,24.0,0.,24.0
1979-07-02 04:02:35.210 ,3,1,0.,24.0,0.,24.0,0.,24.0,0.,24.0
1979-07-02 04:02:59.210 ,3,0,0.,24.0,0.,24.0,0.,24.0,0.,24.0
1979-07-02 04:03:23.210 ,4,1,0.,24.0,0.,24.0,0.,24.0,0.,24.0
1979-07-02 04:03:47.210 ,4,0,0.,24.0,0.,24.0,0.,24.0,0.,24.0
1979-07-02 04:04:11.210 ,5,1,0.,24.0,0.,24.0,0.,24.0,0.,24.0
1979-07-02 04:04:35.220 ,5,0,0.,24.0,0.,24.0,0.,24.0,0.,24.0
1979-07-02 04:04:59.220 ,6,1,0.,24.0,0.,24.0,1.,24.0,0.,24.0
1979-07-02 04:05:23.220 ,6,0,1.,24.0,0.,24.0,0.,24.0,0.,24.0
1979-07-02 04:05:47.220 ,7,1,9.,24.0,0.,24.0,0.,24.0,0.,24.0
1979-07-02 04:06:11.220 ,7,0,32.,24.0,0.,24.0,0.,24.0,0.,24.0
1979-07-02 04:06:35.220 ,7,1,33.,24.0,0.,24.0,0.,24.0,0.,24.0
1979-07-02 04:06:59.220 ,7,0,29.,24.0,0.,24.0,2.,24.0,0.,24.0
1979-07-02 04:07:23.220 ,6,1,20.,24.0,0.,24.0,0.,24.0,0.,24.0
1979-07-02 04:07:47.220 ,6,0,0.,24.0,0.,24.0,0.,24.0,0.,24.0
1979-07-02 04:08:11.210 ,5,1,1.,24.0,0.,24.0,0.,24.0,0.,24.0
1979-07-02 04:08:35.220 ,5,0,0.,24.0,0.,24.0,0.,24.0,0.,24.0
1979-07-02 04:08:59.210 ,4,1,0.,24.0,0.,24.0,0.,24.0,0.,24.0
1979-07-02 04:09:23.210 ,4,0,1.,24.0,0.,24.0,0.,24.0,0.,24.0
1979-07-02 04:09:47.210 ,3,1,0.,24.0,1.,24.0,0.,24.0,0.,24.0
1979-07-02 04:10:11.210 ,3,0,0.,24.0,0.,24.0,0.,24.0,0.,24.0
1979-07-02 04:10:35.210 ,2,1,0.,24.0,0.,24.0,0.,24.0,0.,24.0
1979-07-02 04:10:59.210 ,2,0,1.,24.0,0.,24.0,0.,24.0,0.,24.0
1979-07-02 04:11:23.210 ,1,1,0.,24.0,0.,24.0,0.,24.0,0.,24.0
1979-07-02 04:11:47.210 ,1,0,0.,24.0,0.,24.0,0.,24.0,0.,24.0
1979-07-02 04:12:11.210 ,0,1,0.,24.0,0.,24.0,0.,24.0,0.,24.0
1979-07-02 04:12:35.210 ,0,0,0.,24.0,0.,24.0,0.,24.0,0.,24.0
1979-07-02 04:12:59.210 ,0,1,0.,24.0,0.,24.0,0.,24.0,0.,24.0
1979-07-02 04:13:23.210 ,0,0,0.,24.0,0.,24.0,0.,24.0,0.,24.0
1979-07-02 04:13:47.210 ,1,1,0.,24.0,0.,24.0,0.,24.0,0.,24.0
1979-07-02 04:14:11.210 ,1,0,0.,24.0,0.,24.0,0.,24.0,0.,24.0
1979-07-02 04:14:35.210 ,2,1,0.,24.0,0.,24.0,0.,24.0,0.,24.0
1979-07-02 04:14:59.210 ,2,0,0.,24.0,0.,24.0,0.,24.0,0.,24.0
1979-07-02 04:15:23.210 ,3,1,0.,24.0,0.,24.0,0.,24.0,0.,24.0
1979-07-02 04:15:47.210 ,3,0,0.,24.0,0.,24.0,0.,24.0,0.,24.0
1979-07-02 04:16:11.210 ,4,1,0.,24.0,0.,24.0,0.,24.0,0.,24.0
1979-07-02 04:16:35.210 ,4,0,0.,24.0,0.,24.0,0.,24.0,0.,24.0
1979-07-02 04:16:59.210 ,5,1,0.,24.0,0.,24.0,0.,24.0,0.,24.0
1979-07-02 04:17:23.210 ,5,0,0.,24.0,0.,24.0,0.,24.0,0.,24.0
1979-07-02 04:17:47.210 ,6,1,0.,24.0,0.,24.0,0.,24.0,0.,24.0
1979-07-02 04:18:11.210 ,6,0,0.,24.0,0.,24.0,0.,24.0,0.,24.0
1979-07-02 04:18:35.210 ,7,0,9.,24.0,0.,24.0,1.,24.0,0.,24.0
1979-07-02 04:18:59.210 ,7,0,21.,24.0,0.,24.0,0.,24.0,0.,24.0
1979-07-02 04:19:23.210 ,5,1,12.,24.0,0.,24.0,0.,24.0,0.,24.0
1979-07-02 04:19:47.210 ,1,1,1.,24.0,0.,24.0,0.,24.0,0.,24.0
1979-07-02 04:20:11.210 ,2,1,0.,24.0,0.,24.0,0.,24.0,0.,24.0
1979-07-02 04:20:35.210 ,6,1,0.,24.0,0.,24.0,0.,24.0,0.,24.0
1979-07-02 04:20:59.210 ,5,1,13.,24.0,0.,24.0,0.,24.0,0.,24.0
1979-07-02 04:21:23.210 ,1,1,0.,24.0,0.,24.0,0.,24.0,0.,24.0
1979-07-02 04:21:47.210 ,2,1,0.,24.0,0.,24.0,0.,24.0,0.,24.0
1979-07-02 04:22:11.210 ,6,1,0.,24.0,0.,24.0,0.,24.0,0.,24.0
1979-07-02 04:22:35.210 ,5,1,10.,24.0,0.,24.0,0.,24.0,0.,24.0
1979-07-02 04:22:59.210 ,1,1,0.,24.0,0.,24.0,0.,24.0,0.,24.0
1979-07-02 04:23:23.210 ,2,1,0.,24.0,0.,24.0,1.,24.0,0.,24.0
1979-07-02 04:23:47.210 ,6,1,0.,24.0,0.,24.0,0.,24.0,0.,24.0
1979-07-02 04:24:11.210 ,5,1,17.,24.0,0.,24.0,0.,24.0,0.,24.0
1979-07-02 04:24:35.210 ,1,1,0.,24.0,0.,24.0,0.,24.0,0.,24.0
1979-07-02 04:24:59.210 ,2,1,0.,24.0,0.,24.0,0.,24.0,0.,24.0
1979-07-02 04:25:23.210 ,6,1,0.,24.0,0.,24.0,0.,24.0,0.,24.0
1979-07-02 04:25:47.210 ,5,1,12.,24.0,0.,24.0,0.,24.0,0.,24.0
1979-07-02 04:26:11.210 ,1,1,0.,24.0,0.,24.0,1.,24.0,0.,24.0
1979-07-02 04:26:35.210 ,2,1,0.,24.0,0.,24.0,0.,24.0,0.,24.0
1979-07-02 04:26:59.210 ,6,1,0.,24.0,0.,24.0,0.,24.0,0.,24.0
1979-07-02 04:27:23.210 ,5,1,12.,24.0,0.,24.0,0.,24.0,0.,24.0
1979-07-02 04:27:47.210 ,1,1,0.,24.0,0.,24.0,1.,24.0,0.,24.0
1979-07-02 04:28:11.210 ,2,1,0.,24.0,0.,24.0,1.,24.0,0.,24.0
1979-07-02 04:28:35.210 ,6,1,0.,24.0,0.,24.0,0.,24.0,0.,24.0
1979-07-02 04:28:59.210 ,5,1,12.,24.0,0.,24.0,1.,24.0,0.,24.0
1979-07-02 04:29:23.210 ,1,1,0.,24.0,0.,24.0,0.,24.0,0.,24.0
1979-07-02 04:29:47.210 ,0,0,1.,24.0,0.,24.0,0.,24.0,0.,24.0
1979-07-02 04:30:11.210 ,0,0,0.,24.0,0.,24.0,0.,24.0,0.,24.0
1979-07-02 04:30:35.210 ,5,1,19.,24.0,0.,24.0,0.,24.0,0.,24.0
1979-07-02 04:30:59.210 ,5,0,0.,24.0,0.,24.0,0.,24.0,0.,24.0
1979-07-02 04:31:23.210 ,4,1,0.,24.0,0.,24.0,0.,24.0,0.,24.0
1979-07-02 04:31:47.210 ,4,0,0.,24.0,0.,24.0,1.,24.0,0.,24.0
1979-07-02 04:32:11.210 ,3,1,1.,24.0,0.,24.0,0.,24.0,0.,24.0
1979-07-02 04:32:35.210 ,3,0,0.,24.0,1.,24.0,0.,24.0,0.,24.0
1979-07-02 04:32:59.210 ,2,1,0.,24.0,0.,24.0,0.,24.0,0.,24.0
1979-07-02 04:33:23.210 ,2,0,0.,24.0,0.,24.0,0.,24.0,0.,24.0
1979-07-02 04:33:47.210 ,1,1,2.,24.0,0.,24.0,1.,24.0,0.,24.0
1979-07-02 04:34:11.210 ,1,0,0.,24.0,0.,24.0,1.,24.0,0.,24.0
1979-07-02 04:34:35.210 ,0,1,0.,24.0,0.,24.0,0.,24.0,0.,24.0
1979-07-02 04:34:59.210 ,0,0,0.,24.0,1.,24.0,0.,24.0,0.,24.0
1979-07-02 04:35:23.210 ,0,1,1.,24.0,0.,24.0,0.,24.0,0.,24.0
1979-07-02 04:35:47.210 ,0,0,0.,24.0,0.,24.0,0.,24.0,0.,24.0
1979-07-02 04:36:11.210 ,1,1,0.,24.0,0.,24.0,0.,24.0,0.,24.0
1979-07-02 04:36:35.210 ,1,0,0.,24.0,0.,24.0,0.,24.0,0.,24.0
1979-07-02 04:36:59.210 ,2,1,0.,24.0,0.,24.0,0.,24.0,0.,24.0
1979-07-02 04:37:23.210 ,2,0,0.,24.0,0.,24.0,0.,24.0,0.,24.0
1979-07-02 04:37:47.210 ,3,1,0.,24.0,0.,24.0,0.,24.0,0.,24.0
1979-07-02 04:38:11.210 ,3,0,1.,24.0,0.,24.0,0.,24.0,0.,24.0
1979-07-02 04:38:35.210 ,4,1,0.,24.0,0.,24.0,0.,24.0,0.,24.0
1979-07-02 04:38:59.210 ,4,0,0.,24.0,0.,24.0,1.,24.0,0.,24.0
1979-07-02 04:39:23.210 ,5,1,0.,24.0,0.,24.0,0.,24.0,0.,24.0
1979-07-02 04:39:47.210 ,5,0,0.,24.0,0.,24.0,0.,24.0,0.,24.0
1979-07-02 04:40:11.210 ,6,1,1.,24.0,0.,24.0,1.,24.0,0.,24.0
1979-07-02 04:40:35.210 ,6,0,0.,24.0,0.,24.0,0.,24.0,0.,24.0
1979-07-02 04:40:59.210 ,7,1,6.,24.0,0.,24.0,1.,24.0,0.,24.0
1979-07-02 04:41:23.210 ,7,0,29.,24.0,0.,24.0,0.,24.0,0.,24.0
1979-07-02 04:41:47.210 ,7,1,31.,24.0,0.,24.0,0.,24.0,0.,24.0
1979-07-02 04:42:11.210 ,7,0,24.,24.0,0.,24.0,0.,24.0,0.,24.0
1979-07-02 04:42:35.210 ,6,1,15.,24.0,1.,24.0,0.,24.0,0.,24.0
1979-07-02 04:42:59.210 ,6,0,0.,24.0,0.,24.0,1.,24.0,0.,24.0
1979-07-02 04:43:23.210 ,5,1,1.,24.0,0.,24.0,0.,24.0,0.,24.0
1979-07-02 04:43:47.210 ,5,0,0.,24.0,0.,24.0,1.,24.0,0.,24.0
1979-07-02 04:44:11.210 ,4,1,0.,24.0,0.,24.0,0.,24.0,0.,24.0
1979-07-02 04:44:35.210 ,4,0,0.,24.0,0.,24.0,0.,24.0,0.,24.0
1979-07-02 04:44:59.210 ,3,1,0.,24.0,1.,24.0,0.,24.0,0.,24.0
1979-07-02 04:45:23.210 ,3,0,0.,24.0,0.,24.0,0.,24.0,0.,24.0
1979-07-02 04:45:47.210 ,2,1,1.,24.0,0.,24.0,1.,24.0,0.,24.0
1979-07-02 04:46:11.210 ,2,0,0.,24.0,0.,24.0,1.,24.0,0.,24.0
1979-07-02 04:46:35.210 ,1,1,1.,24.0,0.,24.0,0.,24.0,0.,24.0
1979-07-02 04:46:59.210 ,1,0,1.,24.0,0.,24.0,1.,24.0,0.,24.0
1979-07-02 04:47:23.210 ,0,1,0.,24.0,1.,24.0,0.,24.0,0.,24.0
1979-07-02 04:47:47.210 ,0,0,0.,24.0,0.,24.0,1.,24.0,0.,24.0
1979-07-02 04:48:11.210 ,0,1,0.,24.0,0.,24.0,0.,24.0,0.,24.0
1979-07-02 04:48:35.210 ,0,0,0.,24.0,0.,24.0,0.,24.0,0.,24.0
1979-07-02 04:48:59.210 ,1,1,0.,24.0,0.,24.0,1.,24.0,0.,24.0
1979-07-02 04:49:23.210 ,1,0,0.,24.0,0.,24.0,0.,24.0,0.,24.0
1979-07-02 04:49:47.210 ,2,1,0.,24.0,0.,24.0,0.,24.0,0.,24.0
1979-07-02 04:50:11.210 ,2,0,0.,24.0,0.,24.0,0.,24.0,0.,24.0
1979-07-02 04:50:35.210 ,3,1,0.,24.0,0.,24.0,1.,24.0,0.,24.0
1979-07-02 04:50:59.210 ,3,0,0.,24.0,0.,24.0,0.,24.0,0.,24.0
1979-07-02 04:51:23.210 ,4,1,0.,24.0,0.,24.0,0.,24.0,0.,24.0
1979-07-02 04:51:47.210 ,4,0,0.,24.0,0.,24.0,1.,24.0,0.,24.0
1979-07-02 04:52:11.210 ,5,1,0.,24.0,0.,24.0,1.,24.0,0.,24.0
1979-07-02 04:52:35.210 ,5,0,2.,24.0,1.,24.0,0.,24.0,0.,24.0
1979-07-02 04:52:59.210 ,6,1,1.,24.0,0.,24.0,0.,24.0,0.,24.0
1979-07-02 04:53:23.210 ,6,0,0.,24.0,0.,24.0,0.,24.0,0.,24.0
1979-07-02 04:53:47.210 ,7,1,5.,24.0,0.,24.0,0.,24.0,0.,24.0
1979-07-02 04:54:11.210 ,7,0,27.,24.0,0.,24.0,1.,24.0,0.,24.0
1979-07-02 04:54:35.210 ,7,1,34.,24.0,0.,24.0,1.,24.0,0.,24.0
1979-07-02 04:54:59.210 ,7,0,27.,24.0,0.,24.0,0.,24.0,0.,24.0
1979-07-02 04:55:23.210 ,6,1,19.,24.0,0.,24.0,0.,24.0,0.,24.0
1979-07-02 04:55:47.210 ,6,0,0.,24.0,0.,24.0,0.,24.0,0.,24.0
1979-07-02 04:56:11.210 ,5,1,0.,24.0,0.,24.0,0.,24.0,0.,24.0
1979-07-02 04:56:35.210 ,0,0,0.,24.0,0.,24.0,0.,24.0,0.,24.0
1979-07-02 04:57:02.810 ,0,0,0.,24.0,0.,24.0,1.,24.0,0.,24.0
1979-07-02 04:57:23.210 ,0,0,0.,24.0,0.,24.0,0.,24.0,0.,24.0
1979-07-02 04:57:47.210 ,3,1,1.,24.0,0.,24.0,1.,24.0,0.,24.0
1979-07-02 04:58:11.210 ,3,0,0.,24.0,0.,24.0,2.,24.0,0.,24.0
1979-07-02 04:58:35.210 ,2,1,0.,24.0,0.,24.0,1.,24.0,0.,24.0
1979-07-02 04:58:59.210 ,2,0,1.,24.0,0.,24.0,0.,24.0,0.,24.0
1979-07-02 04:59:23.210 ,1,1,0.,24.0,0.,24.0,1.,24.0,0.,24.0
1979-07-02 04:59:47.210 ,1,0,0.,24.0,0.,24.0,0.,24.0,0.,24.0
1979-07-02 05:00:11.210 ,0,1,1.,24.0,0.,24.0,0.,24.0,0.,24.0
1979-07-02 05:00:35.210 ,0,0,0.,24.0,0.,24.0,1.,24.0,0.,24.0
1979-07-02 05:00:59.210 ,0,1,1.,24.0,0.,24.0,0.,24.0,0.,24.0
1979-07-02 05:01:23.210 ,0,0,0.,24.0,0.,24.0,1.,24.0,0.,24.0
1979-07-02 05:01:47.210 ,1,1,0.,24.0,0.,24.0,0.,24.0,0.,24.0
1979-07-02 05:02:11.210 ,1,0,0.,24.0,0.,24.0,0.,24.0,0.,24.0
1979-07-02 05:02:35.210 ,2,1,0.,24.0,0.,24.0,0.,24.0,0.,24.0
1979-07-02 05:02:59.210 ,2,0,0.,24.0,0.,24.0,0.,24.0,0.,24.0
1979-07-02 05:03:23.210 ,3,1,0.,24.0,0.,24.0,0.,24.0,0.,24.0
1979-07-02 05:03:47.210 ,3,0,0.,24.0,1.,24.0,0.,24.0,0.,24.0
1979-07-02 05:04:11.210 ,4,1,0.,24.0,0.,24.0,0.,24.0,0.,24.0
1979-07-02 05:04:35.210 ,4,0,0.,24.0,0.,24.0,0.,24.0,0.,24.0
1979-07-02 05:04:59.210 ,5,1,0.,24.0,0.,24.0,0.,24.0,0.,24.0
1979-07-02 05:05:23.210 ,5,0,0.,24.0,0.,24.0,1.,24.0,0.,24.0
1979-07-02 05:05:47.210 ,6,1,0.,24.0,0.,24.0,0.,24.0,0.,24.0
1979-07-02 05:06:11.210 ,6,0,1.,24.0,0.,24.0,0.,24.0,0.,24.0
1979-07-02 05:06:35.210 ,7,0,7.,24.0,0.,24.0,0.,24.0,0.,24.0
1979-07-02 05:06:59.210 ,7,0,31.,24.0,0.,24.0,0.,24.0,0.,24.0
1979-07-02 05:07:23.210 ,5,1,18.,24.0,0.,24.0,1.,24.0,0.,24.0
1979-07-02 05:07:47.210 ,1,1,1.,24.0,0.,24.0,1.,24.0,0.,24.0
1979-07-02 05:08:11.210 ,2,1,0.,24.0,0.,24.0,1.,24.0,0.,24.0
1979-07-02 05:08:35.210 ,6,1,0.,24.0,0.,24.0,0.,24.0,0.,24.0
1979-07-02 05:08:59.210 ,5,1,17.,24.0,1.,24.0,1.,24.0,0.,24.0
1979-07-02 05:09:23.210 ,1,1,0.,24.0,0.,24.0,0.,24.0,0.,24.0
1979-07-02 05:09:47.210 ,2,1,0.,24.0,0.,24.0,0.,24.0,0.,24.0
1979-07-02 05:10:11.210 ,6,1,0.,24.0,0.,24.0,0.,24.0,0.,24.0
1979-07-02 05:10:35.210 ,5,1,8.,24.0,0.,24.0,0.,24.0,0.,24.0
1979-07-02 05:10:59.210 ,1,1,0.,24.0,0.,24.0,0.,24.0,0.,24.0
1979-07-02 05:11:23.210 ,2,1,0.,24.0,0.,24.0,0.,24.0,0.,24.0
1979-07-02 05:11:47.210 ,6,1,0.,24.0,0.,24.0,0.,24.0,0.,24.0
1979-07-02 05:12:11.210 ,5,1,19.,24.0,0.,24.0,0.,24.0,0.,24.0
1979-07-02 05:12:35.210 ,1,1,1.,24.0,0.,24.0,0.,24.0,0.,24.0
1979-07-02 05:12:59.210 ,2,1,0.,24.0,0.,24.0,0.,24.0,0.,24.0
1979-07-02 05:13:23.210 ,6,1,0.,24.0,0.,24.0,0.,24.0,0.,24.0
1979-07-02 05:13:47.210 ,5,1,21.,24.0,0.,24.0,0.,24.0,0.,24.0
1979-07-02 05:14:11.210 ,1,1,0.,24.0,0.,24.0,1.,24.0,0.,24.0
1979-07-02 05:14:35.210 ,2,1,0.,24.0,0.,24.0,1.,24.0,0.,24.0
1979-07-02 05:14:59.210 ,6,1,0.,24.0,0.,24.0,0.,24.0,0.,24.0
1979-07-02 05:15:23.210 ,5,1,12.,24.0,0.,24.0,1.,24.0,0.,24.0
1979-07-02 05:15:47.210 ,1,1,0.,24.0,0.,24.0,0.,24.0,0.,24.0
1979-07-02 05:16:11.210 ,2,1,0.,24.0,0.,24.0,0.,24.0,0.,24.0
1979-07-02 05:16:35.210 ,6,1,0.,24.0,1.,24.0,0.,24.0,0.,24.0
1979-07-02 05:16:59.210 ,5,1,19.,24.0,0.,24.0,0.,24.0,0.,24.0
1979-07-02 05:17:23.210 ,1,1,0.,24.0,0.,24.0,0.,24.0,0.,24.0
1979-07-02 05:17:47.210 ,0,0,0.,24.0,0.,24.0,0.,24.0,0.,24.0
1979-07-02 05:18:11.210 ,0,0,0.,24.0,0.,24.0,0.,24.0,0.,24.0
1979-07-02 05:18:35.210 ,5,1,13.,24.0,0.,24.0,0.,24.0,0.,24.0
1979-07-02 05:18:59.210 ,5,0,0.,24.0,0.,24.0,0.,24.0,0.,24.0
1979-07-02 05:19:23.210 ,4,1,1.,24.0,0.,24.0,0.,24.0,0.,24.0
1979-07-02 05:19:47.210 ,4,0,0.,24.0,0.,24.0,0.,24.0,0.,24.0
1979-07-02 05:20:11.210 ,3,1,0.,24.0,0.,24.0,0.,24.0,0.,24.0
1979-07-02 05:20:35.210 ,3,0,0.,24.0,0.,24.0,0.,24.0,0.,24.0
1979-07-02 05:20:59.210 ,2,1,0.,24.0,0.,24.0,2.,24.0,0.,24.0
1979-07-02 05:21:23.210 ,2,0,0.,24.0,0.,24.0,0.,24.0,0.,24.0
1979-07-02 05:21:47.210 ,1,1,1.,24.0,0.,24.0,0.,24.0,0.,24.0
1979-07-02 05:22:11.210 ,1,0,0.,24.0,0.,24.0,0.,24.0,0.,24.0
1979-07-02 05:22:35.210 ,0,1,1.,24.0,0.,24.0,0.,24.0,0.,24.0
1979-07-02 05:22:59.210 ,0,0,1.,24.0,0.,24.0,0.,24.0,0.,24.0
1979-07-02 05:23:23.210 ,0,1,0.,24.0,0.,24.0,0.,24.0,0.,24.0
1979-07-02 05:23:47.210 ,0,0,0.,24.0,0.,24.0,0.,24.0,0.,24.0
1979-07-02 05:24:11.210 ,1,1,0.,24.0,0.,24.0,1.,24.0,0.,24.0
1979-07-02 05:24:35.210 ,1,0,0.,24.0,0.,24.0,0.,24.0,0.,24.0
1979-07-02 05:24:59.210 ,2,1,0.,24.0,0.,24.0,0.,24.0,0.,24.0
1979-07-02 05:25:23.210 ,2,0,0.,24.0,0.,24.0,0.,24.0,0.,24.0
1979-07-02 05:25:47.210 ,3,1,0.,24.0,0.,24.0,1.,24.0,0.,24.0
1979-07-02 05:26:11.210 ,3,0,0.,24.0,0.,24.0,1.,24.0,0.,24.0
1979-07-02 05:26:35.210 ,4,1,1.,24.0,0.,24.0,0.,24.0,0.,24.0
1979-07-02 05:26:59.210 ,4,0,0.,24.0,0.,24.0,0.,24.0,0.,24.0
1979-07-02 05:27:23.210 ,5,1,0.,24.0,0.,24.0,0.,24.0,0.,24.0
1979-07-02 05:27:47.210 ,5,0,0.,24.0,0.,24.0,0.,24.0,0.,24.0
1979-07-02 05:28:11.210 ,6,1,0.,24.0,0.,24.0,0.,24.0,0.,24.0
1979-07-02 05:28:35.210 ,6,0,1.,24.0,0.,24.0,0.,24.0,0.,24.0
1979-07-02 05:28:59.210 ,7,1,5.,24.0,0.,24.0,0.,24.0,0.,24.0
1979-07-02 05:29:23.210 ,7,0,33.,24.0,0.,24.0,0.,24.0,0.,24.0
1979-07-02 05:29:47.210 ,7,1,31.,24.0,0.,24.0,0.,24.0,0.,24.0
1979-07-02 05:30:11.210 ,7,0,28.,24.0,0.,24.0,0.,24.0,0.,24.0
1979-07-02 05:30:35.210 ,6,1,25.,24.0,0.,24.0,0.,24.0,0.,24.0
1979-07-02 05:30:59.210 ,6,0,0.,24.0,1.,24.0,0.,24.0,0.,24.0
1979-07-02 05:31:23.210 ,5,1,0.,24.0,0.,24.0,1.,24.0,0.,24.0
1979-07-02 05:31:47.210 ,5,0,0.,24.0,0.,24.0,0.,24.0,0.,24.0
1979-07-02 05:32:11.210 ,4,1,1.,24.0,0.,24.0,0.,24.0,0.,24.0
1979-07-02 05:32:35.210 ,4,0,0.,24.0,0.,24.0,1.,24.0,0.,24.0
1979-07-02 05:32:59.210 ,3,1,0.,24.0,0.,24.0,1.,24.0,0.,24.0
1979-07-02 05:33:23.210 ,3,0,0.,24.0,0.,24.0,0.,24.0,0.,24.0
1979-07-02 05:33:47.210 ,2,1,1.,24.0,0.,24.0,0.,24.0,0.,24.0
1979-07-02 05:34:11.210 ,2,0,0.,24.0,0.,24.0,0.,24.0,0.,24.0